EHI
0 0 0 0 0 0 0 0 0 0 0 0 0 0 0 0 0 0 0 0 0 0 0 0 0 0 0 0 0 0 0 0 0 0 0 0 0 0 0 0 0 0 0 0
0 0 0 0 0 0 0 0 0 0 0 0 0 0 0 0 0 0 0 0 0 0 0 0 0 0 0 0 0 0 0 0 0 0 0 0 0 0 0 0 0 0 0 0
0 0 0 0 0 0 0 0 0 0 0 0 0 0 0 0 0 0 0 0 0 0 0 0 0 0 0 0 0 0 0 0 0 0 0 0 0 0 0 0 0 0 0 0
0 0 0 0 0 0 0 0 0 0 0 0 0 0 0 0 0 0 0 0 0 0 0 0 0 0 0 0 0 0 0 0 0 0 0 0 0 0 0 0 0 0 0 0
0 0 0 0 0 0 0 0 0 0 0 0 0 0 0 0 0 0 0 0 0 0 0 0 0 0 0 0 0 0 0 0 0 0 0 0 0 0 0 0 0 0 0 0
0 0 0 0 0 0 0 0 0 0 0 0 0 0 0 0 0 0 0 0 0 0 0 0 0 0 0 0 0 0 0 0 0 0 0 0 0 0 0 0 0 0 0 0
0 0 0 0 0 0 0 0 0 0 0 0 0 0 0 0 0 0 0 0 0 0 0 0 0 0 0 0 0 0 0 0 0 0 0 0 0 0 0 0 0 0 0 0
0 0 0 0 0 0 0 0 0 0 0 0 0 0 0 0 0 0 0 0 0 0 0 0 0 0 0 0 0 0 0 0 0 0 0 0 0 0 0 0 0 0 0 0
0 0 0 0 0 0 0 0 0 0 0 0 0 0 0 0 0 0 0 0 0 0 0 0 0 0 0 0 0 0 0 0 0 0 0 0 0 0 0 0 0 0 0 0
0 0 0 0 0 0 0 0 0 0 0 0 0 0 0 0 0 0 0 0 0 0 0 0 0 0 0 0 0 0 0 0 0 0 0 0 0 0 0 0 0 0 0 0
0 0 0 0 0 0 0 0 0 0 0 0 0 0 0 0 0 0 0 0 0 0 0 0 0 0 0 0 0 0 0 0 0 0 0 0 0 0 0 0 0 0 0 0
0 0 0 0 0 0 0 0 0 0 0 0 0 0 0 0 0 0 0 0 0 0 0 0 0 0 0 0 0 0 0 0 0 0 0 0 0 0 0 0 0 0 0 0
0 0 0 0 0 0 0 0 0 0 0 0 0 0 0 0 0 0 0 0 0 0 0 0 0 0 0 0 0 0 0 0 0 0 0 0 0 0 0 0 0 0 0 0
0 0 0 0 0 0 0 0 0 0 0 0 0 0 0 0 0 0 0 0 0 0 0 0 0 0 0 0 0 0 0 0 0 0 0 0 0 0 0 0 0 0 0 0
0 0 0 0 0 0 0 0 0 0 0 0 0 0 0 0 0 0 0 0 0 0 0 0 0 0 0 0 0 0 0 0 0 0 0 0 0 0 0 0 0 0 0 0
0 0 0 0 0 0 0 0 0 0 0 0 0 0 0 0 0 0 0 0 0 0 0 0 0 0 0 0 0 0 0 0 0 0 0 0 0 0 0 0 0 0 0 0
0 0 0 0 0 0 0 0 0 0 0 0 0 0 0 0 0 0 0 0 0 0 0 0 0 0 0 0 0 0 0 0 0 0 0 0 0 0 0 0 0 0 0 0
0 0 0 0 0 0 0 0 0 0 0 0 0 0 0 0 0 0 0 0 0 0 0 0 0 0 0 0 0 0 0 0 0 0 0 0 0 0 0 0 0 0 0 0
0 0 0 0 0 0 0 0 0 0 0 0 0 0 0 0 0 0 0 0 0 0 0 0 0 0 0 0 0 0 0 0 0 0 0 0 0 0 0 0 0 0 0 0
0 0 0 0 0 0 0 0 0 0 0 0 0 0 0 0 0 0 0 0 0 0 0 0 0 0 0 0 0 0 0 0 0 0 0 0 0 0 0 0 0 0 0 0
0 0 0 0 0 0 0 0 0 0 0 0 0 0 0 0 0 0 0 0 0 0 0 0 0 0 0 0 0 0 0 0 0 0 0 0 0 0 0 0 0 0 0 0
0 0 0 0 0 0 0 0 0 0 0 0 0 0 0 0 0 0 0 0 0 0 0 0 0 0 0 0 0 0 0 0 0 0 0 0 0 0 0 0 0 0 0 0
0 0 0 0 0 0 0 0 0 0 0 0 0 0 0 0 0 0 0 0 0 0 0 0 0 0 0 0 0 0 0 0 0 0 0 0 0 0 0 0 0 0 0 0
0 0 0 0 0 0 0 0 0 0 0 0 0 0 0 0 0 0 0 0 0 0 0 0 0 0 0 0 0 0 0 0 0 0 0 0 0 0 0 0 0 0 0 0
0 0 0 0 0 0 0 0 0 0 0 0 0 0 0 0 0 0 0 0 0 0 0 0 0 0 0 0 0 0 0 0 0 0 0 0 0 0 0 0 0 0 0 0
0 0 0 0 0 0 0 0 0 0 0 0 0 0 0 0 0 0 0 0 0 0 0 0 0 0 0 0 0 0 0 0 0 0 0 0 0 0 0 0 0 0 0 0
0 0 0 0 0 0 0 0 0 0 0 0 0 0 0 0 0 0 0 0 0 0 0 0 0 0 0 0 0 0 0 0 0 0 0 0 0 0 0 0 0 0 0 0
Wind_Speed
5 4 3 6 6 5 7 8 9 10 10 11 7 5 4 4 4 4 5 5 5 5 4 4 3 3 3 3 3 3 3 3 3 3 2 2 3 3 3 2 2 2 2 2
4 3 4 7 8 8 9 8 8 9 12 7 4 3 4 4 4 5 6 6 6 6 5 4 4 4 4 3 3 2 2 3 3 2 2 2 3 3 2 2 2 1 1 2
4 4 3 7 8 8 6 6 6 9 9 4 4 5 5 5 5 6 6 7 6 6 5 5 5 4 4 3 3 2 2 2 2 2 2 2 3 2 2 2 2 2 2 2
1 2 6 7 2 4 5 6 6 6 5 4 5 6 6 4 4 5 6 6 6 6 5 5 4 3 3 2 2 2 2 2 2 2 2 3 2 2 2 2 1 1 2 2
1 3 8 7 3 3 3 6 5 5 5 5 5 5 5 2 2 4 5 6 6 5 5 4 4 2 2 1 1 1 2 2 2 2 2 2 2 2 2 1 1 1 1 1
2 3 7 6 2 1 1 5 2 2 5 5 4 4 5 3 5 6 6 5 5 4 4 4 3 1 1 1 1 2 2 2 2 2 2 2 2 2 2 1 1 1 2 2
4 5 9 5 2 2 2 6 3 3 4 4 4 6 6 6 6 5 5 5 4 4 3 3 2 1 1 1 2 3 2 2 2 2 2 2 2 1 1 1 1 1 2 2
4 4 9 2 2 4 5 3 3 4 4 5 6 6 6 6 6 5 5 5 4 3 3 2 1 0 1 2 2 2 2 2 2 2 2 2 1 1 1 0 1 1 1 2
8 7 4 3 5 4 3 3 4 4 5 5 5 6 6 6 5 5 4 5 4 3 3 3 1 0 1 2 2 1 1 2 2 2 2 1 1 1 1 1 1 1 1 2
5 7 5 5 5 4 3 4 4 5 5 4 5 6 6 5 5 5 4 4 3 2 2 3 3 2 1 2 1 1 1 1 2 2 2 2 1 1 1 1 1 1 1 2
6 7 5 5 5 5 4 4 4 4 4 4 4 5 5 5 5 4 4 4 3 2 2 3 3 2 2 1 1 1 1 1 1 2 1 2 2 1 1 1 1 1 1 2
7 6 5 6 4 3 4 4 4 4 4 4 3 4 4 4 4 4 4 3 2 2 3 3 3 2 2 1 0 0 1 1 1 1 1 1 2 2 3 3 4 4 4 3
6 4 4 5 4 3 4 4 4 4 4 4 3 3 3 4 4 4 4 3 2 3 3 3 3 2 2 2 1 0 1 1 1 1 1 1 1 2 3 4 5 5 5 5
4 2 4 4 4 3 3 3 3 3 3 3 3 2 3 3 3 3 4 4 3 2 2 2 2 2 2 1 1 0 0 1 1 1 1 1 1 1 1 2 3 3 4 6
4 4 4 4 3 3 2 2 2 3 3 3 2 2 2 3 4 4 4 3 2 2 2 2 2 3 2 1 1 0 0 1 1 1 1 1 1 1 1 2 2 2 3 4
2 2 2 3 4 4 3 2 3 4 3 3 3 3 3 3 3 4 3 2 1 2 2 2 2 3 2 1 1 1 1 1 1 1 1 1 1 1 1 1 2 2 2 3
1 3 3 3 4 4 4 3 3 4 3 3 3 3 2 2 3 3 3 2 2 2 2 2 2 2 2 1 1 0 1 1 2 1 1 1 1 1 1 1 2 2 2 3
4 4 4 4 4 4 4 3 3 3 3 3 3 2 2 2 3 3 3 2 2 2 2 2 2 2 1 1 1 0 0 1 1 1 1 1 1 1 1 1 2 2 2 3
2 2 3 3 3 3 2 3 3 3 3 2 2 2 3 3 3 3 2 1 1 2 3 2 3 2 1 1 1 0 0 0 1 1 1 1 1 1 1 1 2 2 2 2
1 1 1 2 1 1 2 2 2 2 2 1 1 2 2 3 2 1 1 1 2 2 2 2 2 1 1 1 1 1 0 1 1 1 1 1 1 1 1 2 2 2 2 2
1 1 1 1 2 2 2 2 1 2 2 1 1 2 2 2 2 1 1 2 2 2 2 2 2 1 1 1 1 1 1 1 1 1 1 1 1 1 1 2 2 2 2 2
1 1 1 1 2 2 2 2 1 1 2 2 1 1 1 2 2 2 1 2 2 3 2 1 1 2 2 1 1 1 1 1 1 1 1 1 1 1 2 2 2 2 2 2
1 1 1 1 1 2 2 2 2 1 1 1 2 1 1 2 1 1 2 2 2 3 2 1 2 3 3 2 1 1 1 1 1 1 1 1 1 1 2 2 2 2 2 2
0 0 1 1 1 1 2 3 2 1 1 2 2 2 1 1 1 1 1 3 4 4 2 2 3 3 3 2 1 1 1 1 1 1 1 1 1 1 1 2 2 2 2 3
1 0 0 0 0 1 2 2 2 1 1 1 2 2 1 1 1 2 2 2 3 3 2 2 3 3 2 1 1 1 1 1 1 1 1 1 1 1 2 2 2 2 2 3
1 1 1 1 1 1 1 1 1 1 1 1 2 2 1 1 1 1 1 1 2 3 2 2 2 2 1 1 1 1 1 2 2 1 1 1 2 2 2 2 3 2 2 3
0 0 0 1 1 1 1 1 1 1 1 1 1 2 1 1 1 1 1 1 2 2 2 2 1 1 1 1 1 1 1 1 1 1 1 2 2 2 2 2 2 2 3 3
Wind_Direction
256 270 253 252 254 233 222 227 231 253 262 275 278 281 289 298 307 313 313 310 304 301 295 294 294 292 299 306 314 320 316 309 301 306 307 310 307 304 307 308 298 288 288 292
278 266 259 268 261 246 245 242 243 262 272 275 287 302 301 302 301 300 303 305 306 304 301 295 289 284 288 292 297 302 299 298 307 316 317 313 308 306 312 310 305 305 296 298
267 295 322 273 243 224 231 231 221 243 261 294 303 298 289 290 290 292 296 300 300 297 291 287 282 280 275 269 287 297 299 305 318 320 312 307 305 308 307 303 310 316 312 313
276 13 250 250 232 206 232 258 239 249 268 279 278 288 288 275 273 289 294 297 297 296 297 296 288 288 285 277 279 297 306 314 322 323 314 312 313 312 309 301 300 304 307 316
165 250 275 284 250 191 212 272 244 242 278 301 311 314 296 262 262 277 285 288 287 286 289 293 291 289 289 296 311 317 312 312 316 314 308 309 304 304 309 321 319 311 306 307
167 226 254 263 254 205 130 282 251 233 275 296 321 305 290 306 303 299 298 296 295 296 296 295 294 300 281 299 308 302 305 307 310 308 303 299 293 298 309 310 310 321 321 317
204 240 263 263 268 103 171 265 286 268 270 268 259 261 288 302 302 299 301 306 309 305 298 286 284 276 275 289 297 308 320 321 325 320 310 306 316 311 306 318 342 339 325 315
178 221 257 243 140 192 231 277 292 287 278 271 275 290 300 301 304 311 317 320 321 319 313 307 306 287 291 293 310 330 338 344 338 329 326 343 358 341 334 6 2 333 325 319
199 223 253 223 220 245 255 271 282 280 284 278 283 290 299 301 306 309 314 317 318 313 321 332 340 341 287 302 325 340 357 357 344 339 343 347 348 338 353 20 10 328 324 323
256 265 261 258 261 270 261 258 277 281 282 280 280 288 296 299 306 310 314 316 318 329 340 333 338 343 307 307 322 346 351 344 345 353 351 354 349 345 360 2 343 328 328 328
256 273 294 275 245 254 271 276 284 291 282 272 275 285 288 295 302 304 308 312 316 322 317 318 329 332 327 327 353 354 340 337 344 347 349 346 345 345 340 329 317 304 298 298
238 239 229 261 264 258 264 270 276 285 291 289 273 278 289 292 293 295 299 305 320 318 313 315 325 322 322 320 276 163 329 336 337 344 344 347 346 347 352 343 337 339 337 330
241 258 249 265 279 270 257 267 277 273 271 283 285 280 284 290 293 297 304 305 298 299 304 310 317 318 319 318 310 203 251 302 318 336 342 342 345 354 344 343 347 351 352 349
250 258 271 263 267 279 277 281 283 285 284 278 278 286 289 291 295 300 302 301 299 300 299 304 312 313 314 313 311 301 299 307 320 318 327 328 329 333 334 335 339 342 345 349
265 245 245 271 284 290 292 294 302 300 299 299 289 284 287 292 295 299 303 309 320 321 316 321 321 318 325 322 319 315 317 301 310 323 326 327 340 348 342 336 336 334 340 344
285 287 261 262 272 285 294 286 279 284 288 291 294 295 293 288 292 300 305 309 315 306 308 313 311 314 325 332 339 335 316 316 340 345 339 346 356 356 348 342 340 339 337 337
230 262 260 268 272 277 274 266 262 270 281 286 288 297 305 311 312 310 313 317 299 287 292 291 300 316 323 329 334 331 338 327 349 357 342 334 338 341 336 333 331 329 325 335
231 240 242 247 255 266 274 279 278 277 277 281 295 301 298 292 288 293 303 322 340 336 323 307 304 319 326 338 352 360 353 349 345 332 331 337 344 345 349 342 339 335 329 334
247 253 271 274 262 254 263 277 286 288 291 294 294 290 288 283 282 290 309 334 324 317 316 318 329 1 352 338 2 39 45 29 3 349 349 340 0 2 350 345 339 330 328 332
301 308 309 315 318 291 286 299 307 311 310 308 304 307 310 306 313 325 349 310 278 273 293 313 342 348 334 325 1 47 62 42 17 359 353 347 351 346 345 343 341 337 331 326
295 311 322 323 327 326 315 316 319 314 322 328 312 299 306 318 330 339 356 317 312 313 316 326 353 334 322 341 20 57 59 41 8 342 338 338 343 341 340 336 330 330 330 327
288 294 302 317 328 326 330 333 323 319 327 330 327 324 329 330 339 338 293 260 294 319 339 334 327 316 334 19 48 51 37 16 355 342 338 331 326 321 320 320 316 317 320 321
269 278 292 305 307 313 330 336 329 325 318 311 306 301 296 296 298 307 314 310 314 325 345 328 316 330 5 47 55 52 37 14 352 335 327 318 312 309 307 308 308 313 315 316
247 267 282 318 359 346 328 325 332 330 316 305 296 291 294 314 317 287 279 310 326 336 354 326 331 355 33 55 49 32 6 339 320 306 302 299 294 296 298 300 304 307 307 310
216 238 218 111 288 278 284 314 334 340 346 334 322 316 307 275 268 301 318 322 332 351 358 347 357 12 31 35 16 335 305 280 276 278 272 282 287 291 292 295 297 301 303 303
196 213 226 230 241 259 268 278 295 311 328 332 332 330 336 335 323 323 336 342 347 354 356 352 356 4 16 3 338 317 304 302 311 308 294 289 285 285 286 291 294 294 293 293
155 205 258 296 286 259 249 245 254 278 280 275 304 323 337 342 347 349 350 351 358 358 349 349 355 357 355 347 333 320 308 300 293 286 283 279 276 275 278 283 288 290 290 288